Location: Baia Mare
(47.6567°N, 23.5850°E)
Time: 22:37:04
(UTC+02:00)

ISS - Pass Details

Date: 03 February 2018
Orbit: 402 x 407 km, 51.6° (Epoch: 24 February)

Event Time Altitude Azimuth Distance (km) Brightness Sun altitude
Rises 19:19:21 0° 284° (WNW) 2,319 1.4 -18.7°
Reaches altitude 10° 19:21:31 10° 292° (WNW) 1,460 -0.1 -19.0°
Enters shadow 19:24:33 39° 360° (N) 619 -3.0 -19.6°
